INTELSAT 33E DEB, 64406

Orbit data source: Space-Track

INTELSAT 33E DEB, 64406 is space debris in GEO originally from a launch on Wed, 24 Aug 2016 UTC launched from the French Guiana (FRGUI). Debris objects in space refer to the collection of defunct objects orbiting the Earth. Examples of debris include non-operational satellites, rocket bodies, and fragments generated from explosions, collisions, or faulty payload assembly.

Loading next visibility...
Identifier
64406, 2016-053AL
Orbit
GEO
Country
Flag of USUS / ITSO
Related business
Manufacturer
Boeing/ES
Mission
Spacecraft
Bus & Motor
Unknown
Mass
Unknown
Launch date (UTC)
2016-08-24 (10 years ago)
Launch vehicle
Unknown
Launch site
French Guiana (FRGUI)
Object type
Payload
Rocket body
Debris
Shape & HBR
Unknown shape, 1.1 m
Radar Cross Section
RCS unknown

Expand to show TLE details & history
Last TLE update: 1 day ago

TLE from 1 day ago
0 INTELSAT 33E DEB
1 64406U 16053AL  26165.65441042 -.00000199  00000-0  00000+0 0  9990
2 64406   1.4628  70.2564 0134047  46.0746 313.9702  0.98886492  5816
Epoch: 2026-06-14T15:42Z
TLE epoch observation values (Epoch: 2026-06-14T15:42:21.060Z)
Latitude
Longitude
-69.3533°
Altitude
35,784.016 km
Speed
3.089 km/s
True Right ascension
04h 36m 44s
True Declination
0° 00' 00"
Sunlit
Object was in daylight at epoch
Visualization orbit readout
Latitude
Unknown
Longitude
Unknown
Altitude
Unknown
Speed
Unknown
Apparent Right ascension
Unknown
Apparent Declination
Unknown
Sunlit
N/A
Visualization observer readout
Local Sidereal Time
03:54:36
Azimuth
Unknown
Elevation
Unknown
Doppler factor
Unknown
Orbital elements
Apogee altitude
36,751.016 km
Perigee altitude
35,610.044 km
Semi-major axis
42,558.667 km
Eccentricity
0.0134
Inclination
1.4628°
RAAN
70.2564°
Arg. of periapsis
46.0746°
True anomaly
312.85176°
Mean anomaly
313.9702°
Eccentric anomaly
313.41228°
Mean motion
0.24721 °/min
Orbital period
1,456.27 mins
BSTAR
0
Loading maneuver chart data...
Computing Atmospheric mass density...
Loading historical data...
Loading historical data...
Loading historical data...
Loading historical data...
Loading historical data...
Loading historical data...
Loading historical data...

Documentation

Showing up to 5 results
|